| time (UTC) | temp F | wind direction | speed MPH | gust MPH | rain 1hr in | rain 24hr in | rain mn in | humidity % | barometer mb |
| 20260504045459 | 58 | 0 | 3.0 | 6.0 | 0.00 | 0.00 | 0.00 | 39 | 1011.5 |
| 20260504044959 | 58 | 0 | 3.0 | 6.0 | 0.00 | 0.00 | 0.00 | 37 | 1011.5 |
| 20260504044457 | 58 | 0 | 4.0 | 10.0 | 0.00 | 0.00 | 0.00 | 37 | 1011.4 |
| 20260504043957 | 59 | 0 | 3.0 | 10.0 | 0.00 | 0.00 | 0.00 | 36 | 1011.3 |
| 20260504043458 | 59 | 0 | 2.0 | 9.0 | 0.00 | 0.00 | 0.00 | 36 | 1011.5 |
| 20260504042959 | 59 | 0 | 3.0 | 9.0 | 0.00 | 0.00 | 0.00 | 36 | 1011.4 |
| 20260504042729 | 60 | 0 | 4.0 | 10.0 | 0.00 | 0.00 | 0.00 | 36 | 1011.4 |
| 20260504041959 | 60 | 0 | 5.0 | 12.0 | 0.00 | 0.00 | 0.00 | 35 | 1011.2 |
| 20260504041459 | 61 | 0 | 7.0 | 17.0 | 0.00 | 0.00 | 0.00 | 34 | 1010.9 |
| 20260504041229 | 61 | 0 | 7.0 | 17.0 | 0.00 | 0.00 | 0.00 | 33 | 1011.1 |
| 20260504040458 | 61 | 0 | 8.0 | 15.0 | 0.00 | 0.00 | 0.00 | 32 | 1011.3 |
| 20260504035955 | 61 | 0 | 8.0 | 15.0 | 0.00 | 0.00 | 0.00 | 33 | 1011.4 |
| 20260504035456 | 61 | 0 | 7.0 | 15.0 | 0.00 | 0.00 | 0.00 | 32 | 1011.2 |
| 20260504034956 | 61 | 0 | 6.0 | 15.0 | 0.00 | 0.00 | 0.00 | 33 | 1011.3 |
| 20260504034500 | 62 | 0 | 7.0 | 15.0 | 0.00 | 0.00 | 0.00 | 32 | 1011.2 |
| 20260504034455 | 62 | 0 | 7.0 | 15.0 | 0.00 | 0.00 | 0.00 | 32 | 1011.3 |
| 20260504033456 | 62 | 0 | 6.0 | 15.0 | 0.00 | 0.00 | 0.00 | 31 | 1011.2 |
| 20260504032957 | 62 | 0 | 7.0 | 13.0 | 0.00 | 0.00 | 0.00 | 30 | 1010.9 |
| 20260504032457 | 62 | 0 | 7.0 | 14.0 | 0.00 | 0.00 | 0.00 | 28 | 1010.7 |
| 20260504031955 | 62 | 0 | 6.0 | 14.0 | 0.00 | 0.00 | 0.00 | 29 | 1010.7 |
| 20260504031455 | 61 | 0 | 4.0 | 8.0 | 0.00 | 0.00 | 0.00 | 31 | 1010.7 |
| 20260504030955 | 61 | 0 | 3.0 | 8.0 | 0.00 | 0.00 | 0.00 | 33 | 1010.6 |
| 20260504030456 | 62 | 0 | 1.0 | 6.0 | 0.00 | 0.00 | 0.00 | 35 | 1010.6 |
| 20260504025957 | 62 | 0 | 1.0 | 6.0 | 0.00 | 0.00 | 0.00 | 34 | 1010.4 |
| 20260504025456 | 62 | 0 | 2.0 | 6.0 | 0.00 | 0.00 | 0.00 | 34 | 1010.4 |
| 20260504024955 | 63 | 0 | 1.0 | 5.0 | 0.00 | 0.00 | 0.00 | 35 | 1010.2 |
| 20260504024456 | 63 | 0 | 0.0 | 2.0 | 0.00 | 0.00 | 0.00 | 33 | 1010.0 |
| 20260504023955 | 64 | 0 | 0.0 | 2.0 | 0.00 | 0.00 | 0.00 | 34 | 1010.0 |
| 20260504023455 | 64 | 0 | 1.0 | 4.0 | 0.00 | 0.00 | 0.00 | 33 | 1010.1 |
| 20260504022953 | 65 | 0 | 2.0 | 4.0 | 0.00 | 0.00 | 0.00 | 34 | 1010.1 |
| 20260504022452 | 65 | 0 | 1.0 | 3.0 | 0.00 | 0.00 | 0.00 | 30 | 1010.1 |
| 20260504021953 | 65 | 0 | 1.0 | 4.0 | 0.00 | 0.00 | 0.00 | 29 | 1010.0 |
| 20260504021454 | 66 | 0 | 1.0 | 5.0 | 0.00 | 0.00 | 0.00 | 30 | 1010.1 |
| 20260504020954 | 66 | 0 | 1.0 | 5.0 | 0.00 | 0.00 | 0.00 | 32 | 1010.1 |
| 20260504020454 | 67 | 0 | 1.0 | 5.0 | 0.00 | 0.00 | 0.00 | 28 | 1010.0 |
| 20260504020224 | 67 | 0 | 2.0 | 5.0 | 0.00 | 0.00 | 0.00 | 29 | 1010.0 |
| 20260504015724 | 67 | 0 | 1.0 | 4.0 | 0.00 | 0.00 | 0.00 | 27 | 1009.8 |
| 20260504015222 | 67 | 0 | 0.0 | 0.0 | 0.00 | 0.00 | 0.00 | 28 | 1010.0 |
| 20260504015108 | 67 | 0 | 0.0 | 2.0 | 0.00 | 0.00 | 0.00 | 29 | 1010.0 |
| 20260504013952 | 68 | 0 | 1.0 | 3.0 | 0.00 | 0.00 | 0.00 | 26 | 1009.9 |
| 20260504013449 | 68 | 0 | 2.0 | 3.0 | 0.00 | 0.00 | 0.00 | 27 | 1009.9 |
| 20260504012950 | 68 | 0 | 1.0 | 3.0 | 0.00 | 0.00 | 0.00 | 26 | 1009.9 |
| 20260504012449 | 68 | 0 | 2.0 | 5.0 | 0.00 | 0.00 | 0.00 | 26 | 1010.0 |
| 20260504011948 | 68 | 0 | 3.0 | 5.0 | 0.00 | 0.00 | 0.00 | 26 | 1010.0 |
| 20260504011448 | 69 | 0 | 2.0 | 5.0 | 0.00 | 0.00 | 0.00 | 25 | 1009.9 |
| 20260504010950 | 69 | 0 | 2.0 | 4.0 | 0.00 | 0.00 | 0.00 | 25 | 1010.0 |
| 20260504010449 | 69 | 0 | 1.0 | 4.0 | 0.00 | 0.00 | 0.00 | 25 | 1010.0 |
| 20260504005949 | 69 | 0 | 0.0 | 3.0 | 0.00 | 0.00 | 0.00 | 24 | 1010.1 |
| 20260504005449 | 70 | 0 | 1.0 | 5.0 | 0.00 | 0.00 | 0.00 | 24 | 1010.1 |
| 20260504004950 | 70 | 200 | 2.0 | 5.0 | 0.00 | 0.00 | 0.00 | 23 | 1010.1 |
| 20260504004450 | 70 | 0 | 2.0 | 5.0 | 0.00 | 0.00 | 0.00 | 23 | 1010.1 |
| 20260504003949 | 70 | 0 | 2.0 | 5.0 | 0.00 | 0.00 | 0.00 | 23 | 1010.2 |
| 20260504003447 | 70 | 0 | 3.0 | 5.0 | 0.00 | 0.00 | 0.00 | 23 | 1010.2 |
| 20260504002949 | 70 | 0 | 3.0 | 5.0 | 0.00 | 0.00 | 0.00 | 22 | 1010.2 |
| 20260504002447 | 71 | 0 | 3.0 | 6.0 | 0.00 | 0.00 | 0.00 | 23 | 1010.2 |
| 20260504001949 | 71 | 0 | 3.0 | 6.0 | 0.00 | 0.00 | 0.00 | 21 | 1010.2 |
| 20260504001448 | 71 | 201 | 3.0 | 9.0 | 0.00 | 0.00 | 0.00 | 21 | 1010.4 |
| 20260504000946 | 71 | 0 | 4.0 | 9.0 | 0.00 | 0.00 | 0.00 | 22 | 1010.5 |
| 20260504000448 | 71 | 0 | 3.0 | 7.0 | 0.00 | 0.00 | 0.00 | 23 | 1010.5 |
| 20260503235945 | 71 | 0 | 4.0 | 7.0 | 0.00 | 0.00 | 0.00 | 22 | 1010.5 |
| 20260503235446 | 71 | 0 | 4.0 | 7.0 | 0.00 | 0.00 | 0.00 | 22 | 1010.5 |
| 20260503234945 | 71 | 0 | 4.0 | 7.0 | 0.00 | 0.00 | 0.00 | 22 | 1010.5 |
| 20260503234446 | 72 | 0 | 4.0 | 10.0 | 0.00 | 0.00 | 0.00 | 21 | 1010.5 |
| 20260503233946 | 72 | 0 | 4.0 | 10.0 | 0.00 | 0.00 | 0.00 | 20 | 1010.5 |
| 20260503233445 | 72 | 0 | 3.0 | 9.0 | 0.00 | 0.00 | 0.00 | 19 | 1010.6 |
| 20260503232945 | 72 | 0 | 3.0 | 5.0 | 0.00 | 0.00 | 0.00 | 20 | 1010.6 |
| 20260503232445 | 73 | 0 | 3.0 | 7.0 | 0.00 | 0.00 | 0.00 | 19 | 1010.6 |
| 20260503231947 | 73 | 0 | 4.0 | 7.0 | 0.00 | 0.00 | 0.00 | 19 | 1010.5 |
| 20260503231446 | 73 | 0 | 4.0 | 8.0 | 0.00 | 0.00 | 0.00 | 19 | 1010.5 |
| 20260503230943 | 73 | 0 | 2.0 | 8.0 | 0.00 | 0.00 | 0.00 | 19 | 1010.4 |
| 20260503230445 | 73 | 0 | 2.0 | 4.0 | 0.00 | 0.00 | 0.00 | 20 | 1010.4 |
| 20260503225944 | 73 | 0 | 4.0 | 9.0 | 0.00 | 0.00 | 0.00 | 18 | 1010.4 |
| 20260503225444 | 73 | 0 | 4.0 | 9.0 | 0.00 | 0.00 | 0.00 | 19 | 1010.4 |
| 20260503224943 | 74 | 0 | 4.0 | 7.0 | 0.00 | 0.00 | 0.00 | 20 | 1010.4 |
| 20260503224715 | 74 | 0 | 4.0 | 7.0 | 0.00 | 0.00 | 0.00 | 19 | 1010.4 |
| 20260503223944 | 74 | 0 | 4.0 | 8.0 | 0.00 | 0.00 | 0.00 | 20 | 1010.4 |
| 20260503223444 | 74 | 0 | 5.0 | 14.0 | 0.00 | 0.00 | 0.00 | 21 | 1010.4 |
| 20260503222941 | 74 | 0 | 6.0 | 14.0 | 0.00 | 0.00 | 0.00 | 19 | 1010.6 |
| 20260503222442 | 74 | 0 | 7.0 | 13.0 | 0.00 | 0.00 | 0.00 | 20 | 1010.5 |
| 20260503221941 | 74 | 0 | 6.0 | 13.0 | 0.00 | 0.00 | 0.00 | 19 | 1010.6 |
| 20260503221439 | 74 | 0 | 5.0 | 10.0 | 0.00 | 0.00 | 0.00 | 19 | 1010.7 |
| 20260503220939 | 74 | 0 | 5.0 | 10.0 | 0.00 | 0.00 | 0.00 | 20 | 1010.8 |
| 20260503220439 | 74 | 0 | 6.0 | 11.0 | 0.00 | 0.00 | 0.00 | 19 | 1010.8 |
| 20260503215939 | 74 | 0 | 7.0 | 11.0 | 0.00 | 0.00 | 0.00 | 19 | 1010.9 |
| 20260503215712 | 74 | 0 | 8.0 | 13.0 | 0.00 | 0.00 | 0.00 | 19 | 1011.1 |
| 20260503214939 | 75 | 0 | 9.0 | 16.0 | 0.00 | 0.00 | 0.00 | 20 | 1011.1 |
| 20260503214440 | 75 | 0 | 9.0 | 16.0 | 0.00 | 0.00 | 0.00 | 20 | 1011.2 |
| 20260503214210 | 75 | 0 | 8.0 | 18.0 | 0.00 | 0.00 | 0.00 | 19 | 1011.2 |
| 20260503213437 | 75 | 0 | 7.0 | 18.0 | 0.00 | 0.00 | 0.00 | 20 | 1011.2 |
| 20260503212938 | 75 | 0 | 6.0 | 15.0 | 0.00 | 0.00 | 0.00 | 18 | 1011.3 |
| 20260503212437 | 75 | 0 | 7.0 | 15.0 | 0.00 | 0.00 | 0.00 | 18 | 1011.4 |
| 20260503211943 | 75 | 0 | 5.0 | 12.0 | 0.00 | 0.00 | 0.00 | 18 | 1011.5 |
| 20260503211938 | 75 | 0 | 6.0 | 14.0 | 0.00 | 0.00 | 0.00 | 17 | 1011.4 |
| 20260503210935 | 75 | 0 | 6.0 | 14.0 | 0.00 | 0.00 | 0.00 | 17 | 1011.5 |
| 20260503210435 | 75 | 0 | 6.0 | 14.0 | 0.00 | 0.00 | 0.00 | 19 | 1011.7 |
| 20260503205936 | 74 | 0 | 5.0 | 10.0 | 0.00 | 0.00 | 0.00 | 18 | 1011.9 |
| 20260503205436 | 74 | 0 | 4.0 | 8.0 | 0.00 | 0.00 | 0.00 | 17 | 1012.0 |
| 20260503204937 | 74 | 0 | 5.0 | 11.0 | 0.00 | 0.00 | 0.00 | 18 | 1012.1 |
| 20260503204706 | 75 | 0 | 6.0 | 11.0 | 0.00 | 0.00 | 0.00 | 18 | 1012.2 |
| 20260503203939 | 75 | 0 | 4.0 | 9.0 | 0.00 | 0.00 | 0.00 | 17 | 1012.4 |
| 20260503203933 | 75 | 0 | 5.0 | 10.0 | 0.00 | 0.00 | 0.00 | 18 | 1012.3 |
| 20260503202933 | 75 | 0 | 3.0 | 8.0 | 0.00 | 0.00 | 0.00 | 19 | 1012.6 |
| 20260503202435 | 75 | 0 | 4.0 | 10.0 | 0.00 | 0.00 | 0.00 | 21 | 1012.6 |
| 20260503201935 | 75 | 0 | 5.0 | 10.0 | 0.00 | 0.00 | 0.00 | 18 | 1012.7 |
| 20260503201435 | 76 | 0 | 4.0 | 8.0 | 0.00 | 0.00 | 0.00 | 22 | 1012.8 |
| 20260503200934 | 76 | 0 | 2.0 | 8.0 | 0.00 | 0.00 | 0.00 | 18 | 1012.7 |
| 20260503200434 | 76 | 0 | 3.0 | 10.0 | 0.00 | 0.00 | 0.00 | 17 | 1012.8 |
| 20260503200205 | 76 | 0 | 5.0 | 10.0 | 0.00 | 0.00 | 0.00 | 18 | 1012.8 |
| 20260503195434 | 76 | 0 | 4.0 | 8.0 | 0.00 | 0.00 | 0.00 | 20 | 1012.8 |
| 20260503194934 | 76 | 0 | 3.0 | 7.0 | 0.00 | 0.00 | 0.00 | 19 | 1012.9 |
| 20260503194431 | 75 | 0 | 2.0 | 5.0 | 0.00 | 0.00 | 0.00 | 20 | 1012.9 |
| 20260503194205 | 75 | 0 | 3.0 | 6.0 | 0.00 | 0.00 | 0.00 | 20 | 1013.0 |
| 20260503193431 | 74 | 17 | 3.0 | 8.0 | 0.00 | 0.00 | 0.00 | 21 | 1013.1 |
| 20260503192931 | 74 | 0 | 3.0 | 8.0 | 0.00 | 0.00 | 0.00 | 23 | 1013.2 |
| 20260503192433 | 74 | 0 | 2.0 | 7.0 | 0.00 | 0.00 | 0.00 | 23 | 1013.2 |
| 20260503191932 | 74 | 0 | 1.0 | 3.0 | 0.00 | 0.00 | 0.00 | 20 | 1013.4 |
| 20260503191432 | 74 | 0 | 1.0 | 4.0 | 0.00 | 0.00 | 0.00 | 21 | 1013.4 |
| 20260503190932 | 73 | 0 | 2.0 | 5.0 | 0.00 | 0.00 | 0.00 | 20 | 1013.5 |
| 20260503190433 | 73 | 0 | 3.0 | 5.0 | 0.00 | 0.00 | 0.00 | 21 | 1013.5 |
| 20260503185930 | 73 | 0 | 2.0 | 5.0 | 0.00 | 0.00 | 0.00 | 23 | 1013.5 |
| 20260503185429 | 72 | 0 | 4.0 | 12.0 | 0.00 | 0.00 | 0.00 | 21 | 1013.6 |
| 20260503185157 | 72 | 0 | 5.0 | 12.0 | 0.00 | 0.00 | 0.00 | 19 | 1013.6 |
| 20260503184428 | 73 | 0 | 5.0 | 11.0 | 0.00 | 0.00 | 0.00 | 20 | 1013.5 |
| 20260503183928 | 73 | 0 | 6.0 | 13.0 | 0.00 | 0.00 | 0.00 | 19 | 1013.6 |
| 20260503183426 | 73 | 0 | 6.0 | 13.0 | 0.00 | 0.00 | 0.00 | 22 | 1013.7 |
| 20260503182925 | 73 | 0 | 5.0 | 12.0 | 0.00 | 0.00 | 0.00 | 21 | 1013.8 |
| 20260503182426 | 73 | 0 | 6.0 | 13.0 | 0.00 | 0.00 | 0.00 | 22 | 1013.9 |
| 20260503181925 | 73 | 0 | 7.0 | 14.0 | 0.00 | 0.00 | 0.00 | 20 | 1014.1 |
| 20260503181426 | 73 | 0 | 8.0 | 14.0 | 0.00 | 0.00 | 0.00 | 20 | 1014.1 |
| 20260503180923 | 74 | 0 | 7.0 | 13.0 | 0.00 | 0.00 | 0.00 | 19 | 1014.2 |
| 20260503180423 | 74 | 0 | 5.0 | 13.0 | 0.00 | 0.00 | 0.00 | 21 | 1014.2 |
| 20260503175924 | 74 | 0 | 5.0 | 13.0 | 0.00 | 0.00 | 0.00 | 22 | 1014.4 |
| 20260503175422 | 74 | 0 | 6.0 | 13.0 | 0.00 | 0.00 | 0.00 | 20 | 1014.3 |
| 20260503174923 | 74 | 0 | 7.0 | 13.0 | 0.00 | 0.00 | 0.00 | 20 | 1014.3 |
| 20260503174424 | 74 | 0 | 7.0 | 13.0 | 0.00 | 0.00 | 0.00 | 23 | 1014.3 |
| 20260503173923 | 74 | 0 | 6.0 | 13.0 | 0.00 | 0.00 | 0.00 | 19 | 1014.4 |
| 20260503173424 | 73 | 0 | 5.0 | 11.0 | 0.00 | 0.00 | 0.00 | 20 | 1014.4 |
| 20260503172923 | 73 | 0 | 5.0 | 9.0 | 0.00 | 0.00 | 0.00 | 20 | 1014.6 |
| 20260503172424 | 73 | 0 | 5.0 | 10.0 | 0.00 | 0.00 | 0.00 | 23 | 1014.7 |
| 20260503171923 | 72 | 0 | 6.0 | 13.0 | 0.00 | 0.00 | 0.00 | 21 | 1014.9 |
| 20260503171425 | 72 | 0 | 5.0 | 13.0 | 0.00 | 0.00 | 0.00 | 20 | 1014.9 |
| 20260503170922 | 72 | 0 | 5.0 | 10.0 | 0.00 | 0.00 | 0.00 | 21 | 1015.0 |
| 20260503170423 | 72 | 0 | 6.0 | 11.0 | 0.00 | 0.00 | 0.00 | 23 | 1015.0 |
| 20260503170152 | 71 | 0 | 5.0 | 11.0 | 0.00 | 0.00 | 0.00 | 24 | 1015.1 |
| 20260503150411 | 60 | 0 | 7.0 | 12.0 | 0.00 | 0.00 | 0.00 | 31 | 1016.1 |
| 20260503131353 | 42 | 0 | 1.0 | 4.0 | 0.00 | 0.00 | 0.00 | 57 | 1016.5 |
| 20260503130850 | 41 | 0 | 1.0 | 4.0 | 0.00 | 0.00 | 0.00 | 59 | 1016.4 |
| 20260503130350 | 41 | 0 | 1.0 | 3.0 | 0.00 | 0.00 | 0.00 | 63 | 1016.4 |
| 20260503130121 | 40 | 0 | 1.0 | 3.0 | 0.00 | 0.00 | 0.00 | 64 | 1016.4 |
| 20260503110827 | 40 | 0 | 1.0 | 2.0 | 0.00 | 0.00 | 0.00 | 59 | 1015.4 |
| 20260503110559 | 40 | 0 | 0.0 | 2.0 | 0.00 | 0.00 | 0.00 | 61 | 1015.4 |
| 20260503090309 | 43 | 0 | 0.0 | 0.0 | 0.00 | 0.00 | 0.00 | 53 | 1016.0 |
| 20260503081306 | 45 | 0 | 0.0 | 2.0 | 0.00 | 0.00 | 0.00 | 59 | 1016.1 |
| 20260503080806 | 46 | 0 | 0.0 | 0.0 | 0.00 | 0.00 | 0.00 | 58 | 1016.0 |
| 20260503080305 | 46 | 0 | 0.0 | 0.0 | 0.00 | 0.00 | 0.00 | 55 | 1016.0 |
| 20260503072805 | 47 | 0 | 1.0 | 3.0 | 0.00 | 0.00 | 0.00 | 52 | 1016.7 |
| 20260503072537 | 47 | 0 | 1.0 | 3.0 | 0.00 | 0.00 | 0.00 | 48 | 1016.8 |
| 20260503071805 | 47 | 0 | 1.0 | 2.0 | 0.00 | 0.00 | 0.00 | 46 | 1016.8 |
| 20260503071303 | 48 | 0 | 0.0 | 1.0 | 0.00 | 0.00 | 0.00 | 45 | 1016.7 |
| 20260503070804 | 48 | 0 | 0.0 | 3.0 | 0.00 | 0.00 | 0.00 | 42 | 1016.7 |
| 20260503070301 | 48 | 0 | 1.0 | 4.0 | 0.00 | 0.00 | 0.00 | 41 | 1016.6 |
| 20260503060302 | 47 | 0 | 1.0 | 2.0 | 0.00 | 0.00 | 0.00 | 51 | 1016.8 |
| 20260503054759 | 48 | 0 | 0.0 | 2.0 | 0.00 | 0.00 | 0.00 | 46 | 1016.7 |
| 20260503054257 | 49 | 0 | 0.0 | 0.0 | 0.00 | 0.00 | 0.00 | 53 | 1016.7 |
| 20260503053758 | 49 | 0 | 0.0 | 2.0 | 0.00 | 0.00 | 0.00 | 42 | 1016.6 |
| 20260503053258 | 49 | 0 | 0.0 | 2.0 | 0.00 | 0.00 | 0.00 | 41 | 1016.7 |
| 20260503052759 | 49 | 0 | 0.0 | 0.0 | 0.00 | 0.00 | 0.00 | 40 | 1016.7 |
| 20260503052259 | 50 | 0 | 0.0 | 0.0 | 0.00 | 0.00 | 0.00 | 40 | 1016.7 |
| 20260503051759 | 50 | 0 | 0.0 | 0.0 | 0.00 | 0.00 | 0.00 | 41 | 1016.7 |
| 20260503051256 | 50 | 0 | 0.0 | 0.0 | 0.00 | 0.00 | 0.00 | 42 | 1016.8 |
| 20260503050756 | 51 | 0 | 0.0 | 0.0 | 0.00 | 0.00 | 0.00 | 42 | 1016.8 |
| 20260503050255 | 51 | 0 | 0.0 | 0.0 | 0.00 | 0.00 | 0.00 | 42 | 1016.8 |
| 20260503045756 | 51 | 0 | 0.0 | 0.0 | 0.00 | 0.00 | 0.00 | 39 | 1016.8 |